V.C. Bird, Antigua

9:06 PM AST on November 13, 2019 (GMT -0400)
V C Bird International

Weather History for TAPA - August, 2019

Change the Weather History Date:

Friday, August 23, 2019

  Actual Average Record
Temperature  
Mean Temperature 82 °F -  
Max Temperature 87 °F 85 °F 91 °F (1997)
Min Temperature 77 °F 77 °F 73 °F (2011)
Cooling Degree Days 17    
Growing Degree Days 32 (Base 50)    
Moisture  
Dew Point 75 °F    
Average Humidity 77    
Maximum Humidity 94    
Minimum Humidity 62    
Precipitation  
Precipitation 0.00 in - - ()
Sea Level Pressure  
Sea Level Pressure 30.03 in    
Wind  
Wind Speed 8 mph ()    
Max Wind Speed 13 mph    
Max Gust Speed -    
Visibility 8.2 miles    
Events Rain    
Averages and records for this station are not official NWS values.
T = Trace of Precipitation, MM = Missing Value Source: Averaged Metar Reports

Daily Weather History Graph

Daily Weather History Graph

Search for Another Location

Airport or City:

Astronomy

Aug. 23, 2019 Rise Set
Actual Time 5:51 AM AST 6:27 PM AST
Civil Twilight 5:29 AM AST 6:49 PM AST
Nautical Twilight 5:03 AM AST 7:15 PM AST
Astronomical Twilight 4:37 AM AST 7:41 PM AST
Moon 11:59 PM AST (8/23) 12:19 PM AST (8/23)
Length of Visible Light 13h 19m
Length of Day
12h 35m
Waning Gibbous, 50% of the Moon is Illuminated
Aug 23
Waning Gibbous
Aug 30
New
Sep 5
First Quarter
Sep 14
Full
Sep 21
Last Quarter

Hourly Weather History & Observations

Time (AST) Temp. Heat Index Dew Point Humidity Pressure Visibility Wind Dir Wind Speed Gust Speed Precip Events Conditions
12:00 AM 80.6 °F 85.4 °F 73.4 °F 79% 30.04 in 6.2 mi East 8.1 mph - N/A   Partly Cloudy
1:00 AM 80.6 °F 85.4 °F 73.4 °F 79% 30.04 in 6.2 mi East 6.9 mph - N/A   Partly Cloudy
2:00 AM 80.6 °F 85.4 °F 73.4 °F 79% 30.01 in 6.2 mi East 6.9 mph - N/A   Partly Cloudy
4:00 AM 80.6 °F 86.2 °F 75.2 °F 84% 30.01 in 6.2 mi East 9.2 mph - N/A   Scattered Clouds
5:00 AM 78 °F - 74 °F 86% 30.03 in 19 mi East 8.1 mph - - Rain Light Rain Showers
5:00 AM 77.0 °F - 75.2 °F 94% 30.01 in 6.2 mi East 8.1 mph - N/A   Mostly Cloudy
7:00 AM 80.6 °F 86.2 °F 75.2 °F 84% 30.04 in 6.2 mi East 9.2 mph - N/A   Partly Cloudy
8:00 AM 84.2 °F 94.1 °F 77.0 °F 79% 30.06 in 6.2 mi East 10.4 mph - N/A   Partly Cloudy
9:00 AM 84.2 °F 92.3 °F 75.2 °F 74% 30.06 in 6.2 mi East 12.7 mph - N/A   Partly Cloudy
10:00 AM 86.0 °F 96.9 °F 77.0 °F 74% 30.06 in 6.2 mi East 11.5 mph - N/A   Mostly Cloudy
11:00 AM 86.0 °F 96.9 °F 77.0 °F 74% 30.06 in 6.2 mi East 10.4 mph - N/A   Scattered Clouds
12:00 PM 86.0 °F 96.9 °F 77.0 °F 74% 30.04 in 6.2 mi East 10.4 mph - N/A   Scattered Clouds
1:00 PM 86.0 °F 95.1 °F 75.2 °F 70% 30.04 in 6.2 mi East 10.4 mph - N/A   Partly Cloudy
2:00 PM 87 °F - 76 °F 62% 30.02 in 19 mi East 12.7 mph - -   Partly Cloudy
2:00 PM 86.0 °F 95.1 °F 75.2 °F 70% 30.01 in 6.2 mi East 12.7 mph - N/A   Partly Cloudy
3:00 PM 86.0 °F 95.1 °F 75.2 °F 70% 30.01 in 6.2 mi East 12.7 mph - N/A   Scattered Clouds
4:00 PM 86.0 °F 95.1 °F 75.2 °F 70% 29.98 in 6.2 mi East 11.5 mph - N/A   Partly Cloudy
5:00 PM 84.2 °F 92.3 °F 75.2 °F 74% 29.98 in 6.2 mi ESE 8.1 mph - N/A   Scattered Clouds
6:00 PM 82.4 °F 89.5 °F 75.2 °F 79% 30.01 in 6.2 mi East 9.2 mph - N/A   Scattered Clouds
7:00 PM 82.4 °F 89.5 °F 75.2 °F 79% 30.01 in 6.2 mi East 8.1 mph - N/A   Scattered Clouds
8:00 PM 83 °F - 76 °F 73% 30.03 in 19 mi ESE 9.2 mph - -   Partly Cloudy
8:00 PM 82.4 °F 89.5 °F 75.2 °F 79% 30.01 in 6.2 mi ESE 9.2 mph - N/A   Scattered Clouds
9:00 PM 82.4 °F 89.5 °F 75.2 °F 79% 30.04 in 6.2 mi East 6.9 mph - N/A   Partly Cloudy
10:00 PM 82.4 °F 89.5 °F 75.2 °F 79% 30.06 in 6.2 mi East 8.1 mph - N/A   Partly Cloudy
11:00 PM 82 °F - 75 °F 75% 30.06 in 19 mi East 8.1 mph - -   Partly Cloudy
11:00 PM 82.4 °F 89.5 °F 75.2 °F 79% 30.04 in 6.2 mi East 8.1 mph - N/A   Scattered Clouds